SAMSAT-IONOSPHERE (RS7*)

Last updated on Tue Aug 25 2026 00:03:14 GMT+0000 (Coordinated Universal Time)

1 61784U 24199BB 26236.59851621 .00056402 00000+0 59507-3 0 9992 2 61784 97.2817 114.3646 0008012 44.9726 315.2180 15.64025119148232
UTC large
Height (km)
Speed (km/s)
/
Latitude / Longitude
Inclination (degrees)
Orbital Period (minutes)
Azimuth
Elevation
Range (km)
Doppler Factor

Next 0 passes for location: London (51.5072 / 0.1276)

No passes found over London.
SAMSAT-IONOSPHERE (RS7*)